Regional Weather Roundup
Issued by NWS Kansas City/Pleasant Hill, MO

Home | Current Version | Previous Version | Text Only | Print | Product List | Glossary On
Versions: 1 2 3 4 5 6 7 8 9 10 11 12 13 14 15 16 17 18 19 20 21 22 23 24 25 26 27 28 29 30 31 32 33 34 35 36 37 38 39 40 41 42 43 44 45 46 47 48 49 50
000
ASUS43 KEAX 281811
RWREAX

WEATHER ROUNDUP FOR EASTERN KANSAS AND NORTHWEST MISSOURI
NATIONAL WEATHER SERVICE KANSAS CITY/PLEASANT HILL MO
1200 PM CST SUN DEC 28 2014

KSZ040-057-103>105-MOZ028-029-037-043-281900-
...KANSAS CITY METROPOLITAN AREA...

CITY           SKY/WX    TMP DP  RH WIND       PRES   REMARKS
K.C. INTL      MOSUNNY   34  21  59 SW9       30.20F WCI  27
6HR MIN TEMP:  14; 6HR MAX TEMP:  34;

K.C. DOWNTOWN  SUNNY     35  19  52 SW8       30.22F WCI  29
6HR MIN TEMP:  19; 6HR MAX TEMP:  36;

LEES SUMMIT    SUNNY     33  19  56 S8        30.22F WCI  26
6HR MIN TEMP:  19; 6HR MAX TEMP:  33;

OLATHE - IXD   SUNNY     33  23  66 S7        30.21F WCI  27
6HR MIN TEMP:  14; 6HR MAX TEMP:  33;

OLATHE - OJC   SUNNY     32  21  64 S7        30.20F WCI  26
6HR MIN TEMP:  16; 6HR MAX TEMP:  32;

LAWRENCE       SUNNY     34  21  59 VRB3      30.22F

$$

MOZ001>008-011>017-020>025-030>033-038>040-044>046-053-054-281900-
...NORTHERN AND CENTRAL MISSOURI...

CITY           SKY/WX    TMP DP  RH WIND       PRES   REMARKS
ST. JOSEPH     SUNNY     33  23  66 SW10      30.20F WCI  25
6HR MIN TEMP:  14; 6HR MAX TEMP:  33;

WHITEMAN AFB   SUNNY     25  19  80 SW2       30.25F
CLINTON        NOT AVBL
SEDALIA        SUNNY     33  22  63 S6        30.23F WCI  28
6HR MIN TEMP:  22; 6HR MAX TEMP:  33;

WARSAW         NOT AVBL
MARSHALL       SUNNY     36  23  60 SW3       30.25F
CHILLICOTHE      N/A     33  23  66 S7        30.22F WCI  27
6HR MIN TEMP:  16; 6HR MAX TEMP:  33;

MOBERLY        SUNNY     34  19  55 SW5       30.22F WCI  30
KIRKSVILLE     SUNNY     32  19  58 SW7       30.20F WCI  26
6HR MIN TEMP:  18; 6HR MAX TEMP:  32;


$$

MOZ041-047>049-056>058-063>065-088>090-097-281900-
...EASTERN AND SOUTHERN MISSOURI...

CITY           SKY/WX    TMP DP  RH WIND       PRES   REMARKS
ST. LOUIS INTL CLOUDY    35  25  66 W6        30.23F WCI  30
6HR MIN TEMP:  32; 6HR MAX TEMP:  35;

SPIRIT OF STL  CLOUDY    34  25  69 W6        30.23F WCI  29
COLUMBIA       MOSUNNY   31  24  75 SW3       30.23F
JEFFERSON CITY PTSUNNY   31  23  72 NW5       30.25F WCI  26
MEXICO         MOSUNNY   32  28  86 W6        30.22F WCI  26
HANNIBAL       MOSUNNY   34  19  55 W6        30.21F WCI  29
ROLLA          PTSUNNY   30  24  78 W3        30.20F
LEBANON        CLOUDY    32  25  74 N3        30.20F
OSAGE BEACH    CLOUDY    30  23  74 SW5       30.23F WCI  25
SPRINGFIELD    CLOUDY    30  23  75 NW3       30.20F
BRANSON        PTSUNNY   32  25  74 CALM      30.21F
NEVADA         SUNNY     34  21  60 S3        30.23F
JOPLIN         SUNNY     31  23  72 CALM      30.24F
WEST PLAINS    CLOUDY    31  24  75 VRB3      30.19F

$$

IAZ060-094-KSZ022-034>040-054-083-096-NEZ052-066-093-281900-
...KANSAS...SOUTHEAST NEBRASKA AND IOWA...

CITY           SKY/WX    TMP DP  RH WIND       PRES   REMARKS
TOPEKA         SUNNY     36  21  54 S3        30.21F
6HR MIN TEMP:  15; 6HR MAX TEMP:  36;

MANHATTAN      SUNNY     34  23  64 VRB7      30.19F WCI  28
EMPORIA        SUNNY     35  23  61 SE9       30.18F WCI  28
CHANUTE        SUNNY     34  22  61 VRB3      30.22F
WICHITA        MOSUNNY   37  22  54 S12       30.18F WCI  29
OMAHA          MOSUNNY   28  19  69 CALM      30.16F
LINCOLN        SUNNY     28  17  63 SW5       30.15F WCI  23
FALLS CITY     SUNNY     36  23  59 SW10      30.16F WCI  28
LAMONI         SUNNY     31  22  69 S12       30.16F WCI  22
DES MOINES     SUNNY     28  20  71 S6        30.16F WCI  22

$$



USA.gov is the U.S. government's official web portal to all federal, state and local government web resources and services.